Location: ??
(34.9170°N, 135.5016°E)
Time: 18:09:41
(UTC+00:00)

S-56A Canister/Altair - Pass Details

Date: 16 March 2021
Orbit: 632 x 2500 km, 38.9° (Epoch: 20 April)

Event Time Altitude Azimuth Distance (km) Brightness Sun altitude
Rises 09:16:38 0° 285° (WNW) 6,094 14.1 -3.0°
Reaches altitude 10° 09:22:10 10° 271° (W) 5,158 13.8 -4.1°
Maximum altitude 09:31:33 20° 232° (SW) 4,288 12.1 -6.0°
Drops below altitude 10° 09:40:23 10° 191° (SSW) 4,762 11.7 -7.8°
Sets 09:45:16 0° 176° (S) 5,495 11.8 -8.8°
